DECAYED

STARLINK-1738, 46336 (Decayed)

Orbit data source: Space-Track

STARLINK-1738, 46336 was a payload satellite owned by SpaceX/Seattle (US) in LEO that was launched on Thu, 03 Sep 2020 UTC via an FALCON 9 launch vehicle from the Air Force Eastern Test Range (AFETR). Payload-class satellites include a variety of spacecraft equipped with specific instruments for various scientific and technological missions. These include communications satellites like Starlink; space stations such as the ISS; scientific satellites like the Hubble; Earth observation satellites from companies like Planet Labs, Umbra, and HawkEye 360; GPS; miniature CubeSats for education and research; and military/defense satellites.

Not visible in the next 10 days
Identifier
46336, 2020-062M
Orbit
Decayed
Country
Flag of USUS
Related business
Manufacturer
SpaceX/Seattle
Mission
Decayed Commercial Communications
Bus & Motor
STARLINK, Unknown motor
Mass
260 kg wet, ~248 kg dry
Launch date (UTC)
2020-09-03 (6 years ago)
Launch vehicle
FALCON 9
Launch site
Air Force Eastern Test Range (AFETR)
Object type
Payload
Rocket body
Debris
Shape & HBR
Box + 1 Pan, 10.1 m
Radar Cross Section
13.562 m², Large (>1 m²)

Expand to show TLE details & history
Last TLE update: 2 months ago

TLE from 2 months ago
0 STARLINK-1738
1 46336U 20062M   26071.76246924  .06150796  11995-4  17343-2 0  9991
2 46336  53.0176 263.8580 0007042 264.3201  95.7036 16.26913484306158
Epoch: 2026-03-12T18:17Z
TLE epoch observation values (Epoch: 2026-03-12T18:17:57.342Z)
Latitude
-0.00007°
Longitude
178.96133°
Altitude
202.232 km
Speed
7.786 km/s
True Right ascension
17h 35m 25s
True Declination
0° 00' 00"
Sunlit
Object was in daylight at epoch
Visualization orbit readout
Latitude
Unknown
Longitude
Unknown
Altitude
Unknown
Speed
Unknown
Apparent Right ascension
Unknown
Apparent Declination
Unknown
Sunlit
N/A
Visualization observer readout
Local Sidereal Time
10:39:16
Azimuth
Unknown
Elevation
Unknown
Doppler factor
Unknown
Orbital elements
Apogee altitude
205.771 km
Perigee altitude
196.505 km
Semi-major axis
6,579.275 km
Eccentricity
0.0007
Inclination
53.0176°
RAAN
263.858°
Arg. of periapsis
264.3201°
True anomaly
95.78389°
Mean anomaly
95.7036°
Eccentric anomaly
95.74375°
Mean motion
4.06702 °/min
Orbital period
88.52 mins
BSTAR
0.0017343
Loading maneuver chart data...
Computing Atmospheric mass density...

Documentation

Showing up to 5 results
|